[[{"header":{"parameterUnit":"m.s-1","parameterCategory":2,"la1":30.2991,"la2":30.254,"lo1":-89.0895,"lo2":-89.0444,"dy":0.0017,"dx":0.0017,"nx":28,"ny":28,"refTime":"2023-11-01T21:00:00:Z","depth":"0","parameterNumber":2,"parameterNumberName":"U-component_of_CURRENTS"},"data":[0,0,0,0,0,0,0,0,0,0,0,0,0,0,0,0,0,0,0,0,0,0,0,0,0,0,0,0,0,0,0,0,0,0,0,0,0,0,0,0,0,0,0,0,0,0,0,0,0,0,0,0,0,0,0,0,0,0,0.3111,0.3111,0,0.3062,0.3061,0.306,0.3016,0.3016,0.3016,0.3016,0.2956,0.2954,0.2953,0,0,0,0,0,0,0,0,0,0,0,0,0,0.3124,0.3124,0.3111,0.3111,0.3111,0.3062,0.3061,0.306,0.3016,0.3016,0.3016,0.3016,0.2957,0.2955,0.2953,0,0,0,0,0,0,0,0,0,0,0,0,0,0.3096,0.3124,0.3111,0.3087,0.3085,0.3062,0.3061,0.3059,0.3016,0.3016,0.3016,0.3016,0.2957,0.2955,0.2952,0.2938,0,0,0.2945,0.2944,0,0,0,0,0,0,0,0,0.3098,0.3095,0.3091,0.3089,0.3086,0.305,0.3044,0.302,0.3016,0.3037,0.3016,0.3016,0.299,0.2985,0.2968,0.2935,0.2933,0.2945,0.2944,0.2943,0.2942,0,0,0,0,0,0,0,0.31,0.3097,0.3086,0.3091,0.3088,0.3065,0.306,0.3038,0.301,0.3035,0.3033,0.3036,0.2988,0.297,0.2966,0.2932,0.2945,0.2943,0.2941,0.2941,0.2947,0.2948,0,0,0,0,0,0,0.3119,0.3099,0.3088,0.3085,0.3098,0.3065,0.306,0.3057,0.301,0.3004,0.3036,0.3034,0.2975,0.2969,0.2964,0.301,0.2943,0.294,0.2939,0.2945,0.2947,0.2949,0,0,0,0,0,0,0.3119,0.3118,0.309,0.3095,0.3091,0.3066,0.3062,0.3056,0.3046,0.3012,0.3005,0.3033,0.2974,0.2968,0.296,0.3005,0.2939,0.2937,0.2943,0.2946,0.2948,0.3059,0,0,0,0,0,0,0.312,0.3118,0.312,0.3097,0.3092,0.3081,0.3063,0.3056,0.305,0.3047,0.3007,0.3001,0.2974,0.2964,0.2957,0.3,0.2935,0.2941,0.2944,0.2947,0.3054,0.3065,0.3075,0,0,0,0,0,0.312,0.3117,0.312,0.3119,0.3095,0.3082,0.3076,0.3054,0.305,0.3044,0.3028,0.3003,0.2979,0.2962,0.2955,0.2998,0.294,0.2943,0.2947,0.3049,0.3063,0.3075,0,0,0,0,0,0,0.3107,0.3112,0.3115,0.3109,0.3104,0.3077,0.3071,0.3062,0.3043,0.3043,0.3011,0.3004,0.3019,0.2988,0.2971,0.3009,0.296,0.2962,0.304,0.3053,0.3063,0.3087,0.2933,0,0,0,0,0,0.3113,0.3118,0.3116,0.3111,0.3114,0.3097,0.309,0.308,0.3064,0.3054,0.3033,0.302,0.3027,0.3022,0.3009,0.3019,0.3029,0.3046,0.3057,0.3066,0.3081,0.3139,0.3157,0.296,0.296,0.296,0,0,0.3102,0.311,0.3109,0.3111,0.3104,0.3119,0.3091,0.3086,0.3104,0.3052,0.3063,0.3052,0.3037,0.3058,0.3063,0.3038,0.3129,0.307,0.3079,0.3088,0.3145,0.3164,0.3181,0.2963,0.2962,0.2962,0,0,0.3095,0.3099,0.3108,0.3115,0.3124,0.3127,0.3133,0.312,0.3121,0.3128,0.3117,0.3136,0.3112,0.3131,0.3136,0.3197,0.3185,0.319,0.3264,0.3321,0.3338,0.3353,0.3404,0.3423,0.3196,0.3196,0.3196,0,0.3086,0.31,0.3104,0.3124,0.3139,0.3141,0.3159,0.3167,0.3153,0.317,0.3145,0.3172,0.3158,0.3222,0.3249,0.3226,0.3248,0.3217,0.3338,0.3353,0.3366,0.3414,0.3434,0.3202,0.3201,0.32,0.32,0,0.3091,0.311,0.3116,0.3157,0.3172,0.3183,0.3212,0.3228,0.3237,0.3249,0.3297,0.3287,0.3307,0.3317,0.3302,0.34,0.3383,0.3347,0.331,0.3393,0.3438,0.3456,0.321,0.3208,0.3206,0.3205,0,0,0.3051,0.311,0.3113,0.3142,0.3192,0.3201,0.3259,0.3307,0.3355,0.3359,0.342,0.3452,0.3453,0.346,0.3455,0.3509,0.3632,0.3476,0.3477,0.3536,0.3765,0.3696,0.3709,0.3619,0.3622,0.3625,0.3762,0,0.3055,0.3103,0.3134,0.3184,0.3214,0.3255,0.331,0.3359,0.3402,0.346,0.3492,0.354,0.3508,0.3531,0.3586,0.3618,0.3683,0.3598,0.3666,0.3668,0.3605,0.3728,0.357,0.3673,0.378,0.3783,0.3785,0,0.3047,0.3089,0.3138,0.3216,0.3232,0.3267,0.3364,0.3415,0.3516,0.3549,0.3616,0.3637,0.3732,0.368,0.3802,0.375,0.3775,0.3794,0.3799,0.3709,0.3633,0.3603,0.3702,0.3644,0.3812,0.381,0.3808,0,0.3014,0.3086,0.3129,0.3152,0.3244,0.3277,0.3334,0.3436,0.3491,0.3618,0.3674,0.3767,0.3822,0.3878,0.3921,0.3875,0.4047,0.3979,0.3947,0.3941,0.3805,0.3782,0.3861,0.4079,0.4079,0.4078,0.4078,0,0.3003,0.3035,0.3114,0.3135,0.3195,0.3267,0.3342,0.3421,0.3535,0.3615,0.3717,0.3789,0.3877,0.3968,0.3986,0.4038,0.4104,0.3997,0.3987,0.3838,0.3817,0.3755,0.3714,0.4083,0.4082,0.4081,0.408,0,0.2954,0.3008,0.3055,0.3147,0.3176,0.3218,0.3324,0.3383,0.3515,0.3629,0.3675,0.3835,0.3964,0.405,0.4158,0.4119,0.4063,0.4169,0.3989,0.3954,0.3816,0.3785,0.3697,0.3579,0.415,0.4149,0.4149,0,0.2933,0.2955,0.3038,0.3066,0.3104,0.3174,0.3223,0.335,0.3416,0.3636,0.3682,0.3867,0.3959,0.4118,0.4118,0.4175,0.4063,0.4035,0.3908,0.3828,0.3788,0.3631,0.3527,0.3783,0.378,0.3777,0.3775,0,0.2895,0.292,0.2959,0.3013,0.3056,0.3111,0.3192,0.3234,0.3398,0.3493,0.3639,0.3742,0.3928,0.3914,0.4008,0.4008,0.3838,0.3974,0.3945,0.3567,0.3349,0.3222,0.3679,0.3749,0.3752,0.3754,0.3755,0.3756,0.2853,0.2861,0.2906,0.2943,0.2992,0.3031,0.3024,0.3114,0.3186,0.3286,0.3474,0.3557,0.369,0.3792,0.3775,0.3697,0.3668,0.3583,0.3577,0.3445,0.325,0.3654,0.3667,0.3669,0.3671,0.3672,0.3674,0,0.278,0.2799,0.2836,0.2858,0.2853,0.2923,0.2977,0.2942,0.2946,0.3094,0.317,0.3303,0.3318,0.3422,0.3449,0.3334,0.3151,0.3262,0.3025,0.2957,0.3384,0.3288,0.3153,0.3153,0.3153,0.3153,0.3153,0.3153,0.2746,0.2732,0.2742,0.27,0.2714,0.2656,0.265,0.263,0.2688,0.2718,0.2777,0.2892,0.319,0.3292,0.3224,0.3136,0.2902,0.2754,0.2765,0.3108,0.3137,0.3165,0.3068,0.2889,0.2889,0.2188,0.2184,0.218]},{"header":{"parameterUnit":"m.s-1","parameterCategory":2,"la1":30.2991,"la2":30.254,"lo1":-89.0895,"lo2":-89.0444,"dy":0.0017,"dx":0.0017,"nx":28,"ny":28,"refTime":"2023-11-01T21:00:00:Z","depth":"0","parameterNumber":3,"parameterNumberName":"V-component_of_CURRENTS"},"data":[0,0,0,0,0,0,0,0,0,0,0,0,0,0,0,0,0,0,0,0,0,0,0,0,0,0,0,0,0,0,0,0,0,0,0,0,0,0,0,0,0,0,0,0,0,0,0,0,0,0,0,0,0,0,0,0,0,0,-0.0294,-0.0294,0,-0.0302,-0.0302,-0.0302,-0.0318,-0.0318,-0.0318,-0.0318,-0.0376,-0.0377,-0.0379,0,0,0,0,0,0,0,0,0,0,0,0,0,-0.0325,-0.0325,-0.0294,-0.0294,-0.0294,-0.0302,-0.0302,-0.0302,-0.0318,-0.0318,-0.0318,-0.0318,-0.0376,-0.0377,-0.0379,0,0,0,0,0,0,0,0,0,0,0,0,0,-0.0322,-0.0324,-0.0294,-0.0302,-0.0302,-0.0302,-0.0302,-0.0302,-0.0318,-0.0318,-0.0318,-0.0318,-0.0375,-0.0377,-0.0379,-0.0387,0,0,-0.0385,-0.0386,0,0,0,0,0,0,0,0,-0.0322,-0.0321,-0.0301,-0.0301,-0.0302,-0.0308,-0.0334,-0.0333,-0.0318,-0.0313,-0.0318,-0.0319,-0.0357,-0.036,-0.0363,-0.0389,-0.0392,-0.0386,-0.0387,-0.0388,-0.0388,0,0,0,0,0,0,0,-0.0322,-0.0321,-0.0299,-0.0301,-0.0301,-0.0316,-0.0315,-0.0334,-0.0336,-0.0314,-0.0315,-0.0313,-0.0358,-0.036,-0.0364,-0.0393,-0.0386,-0.0387,-0.0389,-0.0389,-0.0452,-0.0452,0,0,0,0,0,0,-0.0316,-0.032,-0.0299,-0.0299,-0.0311,-0.0315,-0.0314,-0.0307,-0.0334,-0.0338,-0.0313,-0.0314,-0.0357,-0.0362,-0.0366,-0.0384,-0.0388,-0.039,-0.0391,-0.0451,-0.0452,-0.0452,0,0,0,0,0,0,-0.0316,-0.0314,-0.0298,-0.0309,-0.0308,-0.0313,-0.0305,-0.0307,-0.0306,-0.0333,-0.0338,-0.031,-0.0357,-0.0363,-0.0379,-0.0387,-0.0391,-0.0392,-0.0451,-0.0451,-0.0452,-0.0416,0,0,0,0,0,0,-0.0317,-0.0314,-0.0308,-0.0308,-0.0307,-0.0289,-0.0305,-0.0307,-0.0304,-0.0306,-0.0332,-0.0338,-0.0358,-0.0376,-0.0381,-0.039,-0.0394,-0.045,-0.0451,-0.0452,-0.0417,-0.0415,-0.0414,0,0,0,0,0,-0.0318,-0.0301,-0.0307,-0.0305,-0.0298,-0.0288,-0.0288,-0.0295,-0.0304,-0.0297,-0.0319,-0.0337,-0.0385,-0.0377,-0.0383,-0.0393,-0.045,-0.0451,-0.0452,-0.0417,-0.0416,-0.0414,0,0,0,0,0,0,-0.03,-0.0301,-0.0308,-0.029,-0.0287,-0.029,-0.0282,-0.029,-0.0301,-0.0305,-0.0334,-0.0341,-0.0361,-0.0381,-0.0371,-0.0415,-0.0424,-0.0426,-0.0396,-0.0394,-0.0393,-0.0364,-0.0396,0,0,0,0,0,-0.0296,-0.029,-0.029,-0.0274,-0.0271,-0.0278,-0.0276,-0.028,-0.0289,-0.0294,-0.0314,-0.0342,-0.037,-0.0383,-0.0407,-0.0424,-0.0437,-0.0438,-0.0437,-0.0435,-0.0417,-0.0457,-0.0457,-0.0455,-0.0455,-0.0455,0,0,-0.0283,-0.0283,-0.0279,-0.0272,-0.027,-0.0258,-0.0277,-0.0267,-0.0262,-0.0299,-0.0301,-0.0335,-0.0374,-0.0395,-0.0407,-0.0411,-0.0442,-0.0436,-0.0435,-0.0417,-0.0458,-0.0458,-0.0458,-0.0456,-0.0456,-0.0456,0,0,-0.0249,-0.0254,-0.0237,-0.0235,-0.0232,-0.0238,-0.0233,-0.0237,-0.0245,-0.0252,-0.0286,-0.0319,-0.035,-0.0384,-0.0405,-0.0411,-0.0433,-0.0426,-0.0396,-0.0435,-0.0435,-0.0435,-0.0443,-0.0444,-0.0426,-0.0426,-0.0426,0,-0.0236,-0.0212,-0.0229,-0.0212,-0.02,-0.0226,-0.0199,-0.0214,-0.0225,-0.0227,-0.0246,-0.0305,-0.0345,-0.0377,-0.0385,-0.0408,-0.0419,-0.0397,-0.0432,-0.0433,-0.0433,-0.0441,-0.0443,-0.0425,-0.0425,-0.0425,-0.0425,0,-0.0186,-0.0172,-0.0158,-0.015,-0.0143,-0.0123,-0.0141,-0.0146,-0.0164,-0.018,-0.0209,-0.0268,-0.0299,-0.0332,-0.036,-0.0391,-0.0393,-0.0424,-0.0431,-0.0431,-0.044,-0.0442,-0.0422,-0.0423,-0.0423,-0.0424,0,0,-0.0137,-0.0127,-0.0121,-0.0104,-0.0106,-0.0089,-0.0091,-0.009,-0.0079,-0.0127,-0.012,-0.02,-0.0232,-0.0258,-0.0312,-0.0355,-0.0382,-0.0385,-0.0388,-0.0382,-0.0441,-0.042,-0.0421,-0.042,-0.0421,-0.0421,-0.0441,0,-0.0089,-0.0044,-0.0053,-0.0008,0.0019,-0.0006,0.0001,-0.001,-0.0028,-0.0035,-0.0116,-0.0134,-0.0205,-0.022,-0.0277,-0.0349,-0.0388,-0.0372,-0.045,-0.0451,-0.0425,-0.0423,-0.0398,-0.0412,-0.0443,-0.0444,-0.0444,0,-0.0029,-0.0008,0.0048,0.007,0.0081,0.01,0.0121,0.0124,0.0091,0.0074,0.0029,-0.0025,-0.0093,-0.0159,-0.0277,-0.026,-0.0341,-0.0406,-0.0409,-0.0399,-0.0435,-0.042,-0.0415,-0.059,-0.0448,-0.0448,-0.0447,0,0.0033,0.0066,0.0116,0.0126,0.0143,0.0165,0.0174,0.0164,0.0187,0.015,0.0167,0.0064,0.0038,-0.009,-0.022,-0.0249,-0.0339,-0.0402,-0.0458,-0.0456,-0.0453,-0.045,-0.0616,-0.0487,-0.0487,-0.0487,-0.0487,0,0.0097,0.0134,0.015,0.0182,0.0243,0.0232,0.0297,0.0284,0.0292,0.0349,0.0235,0.0261,0.0054,-0.0022,-0.0172,-0.0296,-0.0303,-0.0436,-0.0461,-0.0439,-0.0435,-0.0601,-0.0704,-0.0488,-0.0487,-0.0487,-0.0487,0,0.0158,0.0168,0.0228,0.0261,0.0279,0.0327,0.0387,0.0432,0.0427,0.05,0.0497,0.0417,0.0328,0.0135,-0.0053,-0.0204,-0.0439,-0.0397,-0.0336,-0.0354,-0.0585,-0.0684,-0.0849,-0.092,-0.047,-0.0469,-0.0469,0,0.0192,0.023,0.0296,0.0344,0.0366,0.0432,0.0486,0.0499,0.0565,0.0619,0.067,0.0602,0.06,0.0334,0.0046,-0.0198,-0.0393,-0.0357,-0.0428,-0.058,-0.0711,-0.0792,-0.0847,-0.0409,-0.0408,-0.0408,-0.0407,0,0.0261,0.0286,0.034,0.0438,0.0509,0.0588,0.0673,0.0748,0.0797,0.0877,0.098,0.0986,0.0742,0.0514,0.0157,-0.0045,-0.0475,-0.0351,-0.0541,-0.0695,-0.0762,-0.0846,-0.0398,-0.0402,-0.0402,-0.0403,-0.0403,-0.0403,0.032,0.0372,0.0452,0.0544,0.063,0.0749,0.084,0.095,0.1093,0.1234,0.1223,0.1277,0.0909,0.0432,0.0145,-0.0395,-0.0427,-0.0578,-0.0688,-0.0757,-0.083,-0.0344,-0.036,-0.036,-0.036,-0.0361,-0.0361,0,0.0401,0.046,0.0551,0.0674,0.0784,0.0808,0.0969,0.1076,0.1276,0.1411,0.1511,0.1381,0.0936,0.0438,-0.0266,-0.066,-0.0827,-0.0895,-0.1034,-0.1076,-0.067,-0.0672,-0.0716,-0.0716,-0.0715,-0.0715,-0.0715,-0.0715,0.0452,0.0557,0.06,0.079,0.0876,0.1033,0.1135,0.1297,0.1429,0.1611,0.1664,0.1662,0.1303,0.0052,-0.0833,-0.1058,-0.1331,-0.1388,-0.1536,-0.1295,-0.1275,-0.1256,-0.1284,-0.1456,-0.1457,-0.1888,-0.1893,-0.1896]}],[{"header":{"parameterUnit":"m.s-1","parameterCategory":2,"la1":30.2991,"la2":30.254,"lo1":-89.0895,"lo2":-89.0444,"dy":0.0017,"dx":0.0017,"nx":28,"ny":28,"refTime":"2023-11-01T21:00:00:Z","depth":"2","parameterNumber":2,"parameterNumberName":"U-component_of_CURRENTS"},"data":[0,0,0,0,0,0,0,0,0,0,0,0,0,0,0,0,0,0,0,0,0,0,0,0,0,0,0,0,0,0,0,0,0,0,0,0,0,0,0,0,0,0,0,0,0,0,0,0,0,0,0,0,0,0,0,0,0,0,0.2685,0.2685,0,0.2706,0.2706,0.2706,0.2711,0.2711,0.2711,0.2712,0.2692,0.2691,0.2691,0,0,0,0,0,0,0,0,0,0,0,0,0,0.268,0.2679,0.2684,0.2685,0.2686,0.2706,0.2706,0.2706,0.2711,0.2711,0.2711,0.2712,0.2692,0.2691,0.2691,0,0,0,0,0,0,0,0,0,0,0,0,0,0.2686,0.2679,0.2684,0.2693,0.2694,0.2706,0.2706,0.2706,0.2711,0.2711,0.2711,0.2712,0.2692,0.2691,0.269,0.2679,0,0,0.2687,0.2687,0,0,0,0,0,0,0,0,0.2686,0.2686,0.2691,0.2693,0.2694,0.2709,0.2698,0.2696,0.2711,0.2701,0.2712,0.2712,0.2696,0.2695,0.2694,0.2679,0.2678,0.2687,0.2687,0.2686,0.2686,0,0,0,0,0,0,0,0.2685,0.2685,0.269,0.2692,0.2694,0.2708,0.2708,0.2698,0.2693,0.2702,0.2703,0.2711,0.2696,0.2695,0.2693,0.2677,0.2687,0.2686,0.2686,0.2685,0.2727,0.2728,0,0,0,0,0,0,0.2688,0.2685,0.2689,0.2691,0.2694,0.2707,0.2708,0.2701,0.2694,0.2695,0.2711,0.2711,0.2697,0.2695,0.2693,0.2749,0.2686,0.2685,0.2685,0.2725,0.2727,0.2729,0,0,0,0,0,0,0.2687,0.2687,0.2688,0.2692,0.2694,0.2707,0.27,0.2702,0.2718,0.2702,0.2701,0.2728,0.2697,0.2694,0.2705,0.2746,0.2685,0.2684,0.2723,0.2726,0.2728,0.2817,0,0,0,0,0,0,0.2687,0.2686,0.269,0.2691,0.2693,0.2708,0.27,0.2702,0.2723,0.2724,0.2716,0.2714,0.2697,0.2707,0.2704,0.2743,0.2683,0.2721,0.2724,0.2727,0.2812,0.2823,0.2832,0,0,0,0,0,0.2686,0.2685,0.2689,0.2691,0.2695,0.271,0.2712,0.272,0.2724,0.2735,0.2735,0.2715,0.2726,0.2707,0.2703,0.2744,0.2719,0.2723,0.2727,0.2808,0.2821,0.2831,0,0,0,0,0,0,0.2672,0.2686,0.2691,0.2691,0.2708,0.2712,0.2725,0.2732,0.274,0.2745,0.2727,0.2725,0.275,0.2734,0.2714,0.2766,0.2723,0.2726,0.2786,0.2797,0.2807,0.2827,0.2682,0,0,0,0,0,0.2675,0.2683,0.2697,0.2698,0.2711,0.2722,0.2733,0.2742,0.2748,0.2753,0.2748,0.275,0.276,0.2768,0.2763,0.2788,0.2794,0.2815,0.2824,0.2833,0.2848,0.2891,0.2906,0.2742,0.2742,0.2742,0,0,0.2673,0.2678,0.2685,0.2698,0.2711,0.2734,0.2729,0.2752,0.2777,0.2748,0.2777,0.2776,0.2772,0.2802,0.2813,0.2797,0.2885,0.2837,0.2845,0.2856,0.2897,0.2913,0.2927,0.2744,0.2744,0.2743,0,0,0.2674,0.2677,0.2694,0.2711,0.274,0.275,0.2763,0.2782,0.2801,0.2827,0.2822,0.285,0.285,0.287,0.2877,0.2937,0.2927,0.2938,0.3012,0.3054,0.3068,0.3081,0.312,0.3135,0.2952,0.2952,0.2952,0,0.2677,0.2686,0.2702,0.2723,0.2745,0.2762,0.2792,0.2812,0.2833,0.2861,0.2847,0.2894,0.2887,0.295,0.2979,0.2961,0.2982,0.2968,0.3068,0.308,0.3092,0.3128,0.3144,0.2957,0.2956,0.2956,0.2955,0,0.2689,0.2707,0.2718,0.2753,0.2782,0.2804,0.2843,0.2877,0.2901,0.2922,0.2985,0.2988,0.3026,0.3033,0.3026,0.3114,0.3102,0.3068,0.304,0.3114,0.3147,0.3162,0.2964,0.2962,0.296,0.2959,0,0,0.2666,0.272,0.2724,0.2753,0.28,0.2824,0.2886,0.2946,0.2994,0.3027,0.3096,0.3133,0.315,0.3162,0.3167,0.3211,0.331,0.3188,0.3188,0.323,0.3414,0.3344,0.3353,0.3299,0.3302,0.3304,0.341,0,0.2674,0.2719,0.2747,0.2799,0.2833,0.2881,0.2933,0.2995,0.3045,0.3111,0.3159,0.3209,0.3196,0.3228,0.3278,0.3297,0.3352,0.3285,0.3334,0.3336,0.3267,0.3369,0.3099,0.3166,0.3424,0.3426,0.3428,0,0.2672,0.2709,0.2763,0.2838,0.2858,0.2892,0.2994,0.3051,0.3153,0.3198,0.3279,0.33,0.3396,0.3355,0.3461,0.3422,0.3439,0.3445,0.3449,0.3363,0.3293,0.3131,0.3182,0.3452,0.345,0.3448,0.3447,0,0.2647,0.2716,0.276,0.2783,0.287,0.2916,0.2976,0.3078,0.3141,0.3267,0.3315,0.3416,0.3481,0.3521,0.3546,0.3518,0.3638,0.3591,0.3547,0.3542,0.3311,0.3281,0.3669,0.3669,0.3668,0.3668,0.3668,0,0.2629,0.2666,0.2752,0.2772,0.2834,0.2917,0.2997,0.3076,0.3196,0.3265,0.3364,0.3423,0.3528,0.3592,0.3596,0.3628,0.3685,0.3591,0.3576,0.3335,0.3307,0.3541,0.3525,0.3672,0.3671,0.367,0.367,0,0.2586,0.2638,0.2693,0.279,0.2818,0.2873,0.2991,0.3051,0.318,0.328,0.3324,0.3475,0.357,0.3638,0.3721,0.3695,0.3714,0.3702,0.3417,0.3367,0.3581,0.3568,0.3687,0.3685,0.3684,0.3683,0.3682,0,0.2569,0.2589,0.2685,0.2712,0.275,0.2838,0.2887,0.3027,0.3098,0.3277,0.3317,0.3467,0.3529,0.3648,0.3647,0.3674,0.3714,0.3422,0.3318,0.3615,0.3589,0.3578,0.3567,0.3052,0.3047,0.3042,0.3038,0,0.253,0.2561,0.2604,0.266,0.2707,0.2761,0.2853,0.289,0.3054,0.3132,0.3237,0.3304,0.3458,0.3381,0.3447,0.3411,0.3398,0.3327,0.3721,0.3088,0.3025,0.2997,0.3005,0.2995,0.2999,0.3002,0.3005,0.3006,0.2494,0.2505,0.2554,0.2591,0.2644,0.2663,0.2651,0.2751,0.2815,0.2894,0.3052,0.307,0.3148,0.3121,0.3034,0.2991,0.3224,0.3065,0.3076,0.3093,0.3,0.2937,0.2875,0.2878,0.2881,0.2884,0.2886,0,0.2428,0.2445,0.248,0.2496,0.2489,0.2567,0.2603,0.2563,0.2561,0.2686,0.2753,0.2579,0.2553,0.2621,0.2503,0.2524,0.2469,0.2408,0.2298,0.2346,0.2387,0.2251,0.1931,0.1927,0.1924,0.1921,0,0,0.2394,0.2382,0.2388,0.2331,0.2345,0.2292,0.2277,0.224,0.2287,0.2252,0.2256,0.2455,0.2564,0.2206,0.2177,0.2026,0.216,0.1953,0.2731,0.2651,0.2687,0.2793,0.2643,0,0,0,0,0]},{"header":{"parameterUnit":"m.s-1","parameterCategory":2,"la1":30.2991,"la2":30.254,"lo1":-89.0895,"lo2":-89.0444,"dy":0.0017,"dx":0.0017,"nx":28,"ny":28,"refTime":"2023-11-01T21:00:00:Z","depth":"2","parameterNumber":3,"parameterNumberName":"V-component_of_CURRENTS"},"data":[0,0,0,0,0,0,0,0,0,0,0,0,0,0,0,0,0,0,0,0,0,0,0,0,0,0,0,0,0,0,0,0,0,0,0,0,0,0,0,0,0,0,0,0,0,0,0,0,0,0,0,0,0,0,0,0,0,0,0.0062,0.0061,0,0.0001,0.0,-0.0,-0.0038,-0.0038,-0.0038,-0.0038,-0.0104,-0.0106,-0.0107,0,0,0,0,0,0,0,0,0,0,0,0,0,0.0068,0.0069,0.0062,0.0061,0.006,0.0001,0.0,-0.0001,-0.0038,-0.0038,-0.0038,-0.0038,-0.0104,-0.0105,-0.0107,0,0,0,0,0,0,0,0,0,0,0,0,0,0.0042,0.0069,0.0062,0.0035,0.0033,0.0001,0.0,-0.0001,-0.0038,-0.0038,-0.0038,-0.0038,-0.0103,-0.0105,-0.0108,-0.012,0,0,-0.0115,-0.0116,0,0,0,0,0,0,0,0,0.0043,0.0041,0.004,0.0037,0.0034,-0.001,-0.0022,-0.0041,-0.0038,-0.0012,-0.0038,-0.0038,-0.0072,-0.0077,-0.009,-0.0123,-0.0126,-0.0116,-0.0117,-0.0118,-0.0119,0,0,0,0,0,0,0,0.0045,0.0043,0.0037,0.0039,0.0036,0.0,-0.0003,-0.0026,-0.0042,-0.0015,-0.0017,-0.0022,-0.0074,-0.0087,-0.0092,-0.0127,-0.0116,-0.0118,-0.0119,-0.012,-0.018,-0.018,0,0,0,0,0,0,0.0059,0.0046,0.0038,0.0035,0.004,0.0001,-0.0003,0.0003,-0.0041,-0.0048,-0.0022,-0.0024,-0.0083,-0.0089,-0.0094,-0.0102,-0.0118,-0.012,-0.0122,-0.018,-0.018,-0.018,0,0,0,0,0,0,0.006,0.006,0.0041,0.0039,0.0034,0.0002,0.0008,0.0002,-0.0012,-0.0047,-0.0054,-0.0029,-0.0083,-0.0091,-0.011,-0.0105,-0.0122,-0.0124,-0.018,-0.018,-0.018,-0.0124,0,0,0,0,0,0,0.0061,0.0061,0.0066,0.004,0.0035,0.0028,0.0009,0.0001,-0.0014,-0.0017,-0.0055,-0.0062,-0.0084,-0.0106,-0.0112,-0.0109,-0.0126,-0.018,-0.018,-0.018,-0.0126,-0.0122,-0.0119,0,0,0,0,0,0.0061,0.0075,0.0067,0.0066,0.0045,0.0028,0.0022,-0.0003,-0.0014,-0.0017,-0.0042,-0.0061,-0.0112,-0.0108,-0.0116,-0.0113,-0.018,-0.018,-0.018,-0.0127,-0.0123,-0.0119,0,0,0,0,0,0,0.0081,0.0071,0.0062,0.0072,0.0053,0.0023,0.0017,-0.0001,-0.0024,-0.0026,-0.006,-0.0067,-0.0082,-0.0108,-0.0102,-0.0132,-0.015,-0.0152,-0.0107,-0.0104,-0.0101,-0.0078,-0.0128,0,0,0,0,0,0.0089,0.0098,0.0076,0.0085,0.0077,0.0046,0.0035,0.0019,-0.0004,-0.0015,-0.0041,-0.007,-0.0089,-0.0104,-0.0126,-0.0143,-0.0164,-0.0148,-0.0145,-0.0142,-0.0129,-0.0159,-0.0157,-0.0181,-0.0181,-0.0181,0,0,0.0097,0.0095,0.0097,0.0089,0.0072,0.0074,0.0039,0.0028,0.003,-0.0018,-0.0024,-0.0057,-0.009,-0.0105,-0.0115,-0.0126,-0.0148,-0.0142,-0.0139,-0.0128,-0.0159,-0.0157,-0.0154,-0.0181,-0.0181,-0.0181,0,0,0.0122,0.0118,0.0131,0.0121,0.0104,0.009,0.009,0.006,0.0046,0.0033,0.0002,-0.0025,-0.006,-0.0083,-0.0098,-0.0092,-0.0126,-0.0106,-0.0074,-0.0103,-0.0101,-0.0099,-0.0126,-0.0127,-0.0108,-0.0108,-0.0108,0,0.0131,0.0153,0.0129,0.014,0.0143,0.0105,0.012,0.0101,0.0069,0.0065,0.004,-0.001,-0.0046,-0.0057,-0.006,-0.0082,-0.0105,-0.0083,-0.0097,-0.0096,-0.0095,-0.0123,-0.0125,-0.0105,-0.0106,-0.0106,-0.0106,0,0.0167,0.0181,0.0188,0.0198,0.0194,0.0201,0.0178,0.0167,0.0146,0.0128,0.0106,0.0051,0.0022,-0.0001,-0.0029,-0.0043,-0.0062,-0.0084,-0.0101,-0.0089,-0.0119,-0.0122,-0.0102,-0.0103,-0.0103,-0.0104,0,0,0.0201,0.0212,0.0216,0.0236,0.0228,0.0234,0.0238,0.0236,0.0252,0.0198,0.0208,0.0147,0.0108,0.0088,0.0038,0.0004,-0.0021,-0.0037,-0.004,-0.0053,-0.0085,-0.01,-0.0105,-0.0047,-0.0047,-0.0047,-0.0108,0,0.0238,0.0283,0.0274,0.0317,0.034,0.0314,0.033,0.032,0.0302,0.0299,0.0231,0.022,0.0145,0.013,0.0082,0.0014,-0.0026,-0.0002,-0.0103,-0.0106,-0.0113,-0.0108,-0.0085,-0.0137,-0.0111,-0.0112,-0.0112,0,0.028,0.031,0.036,0.0395,0.0402,0.0419,0.0446,0.0454,0.0434,0.0417,0.0376,0.0326,0.0266,0.0201,0.0083,0.0101,0.0013,-0.0049,-0.0053,-0.0085,-0.0126,-0.0147,-0.0144,-0.0118,-0.0117,-0.0117,-0.0117,0,0.0334,0.0371,0.0422,0.0433,0.0462,0.0478,0.0491,0.049,0.0519,0.0492,0.0501,0.0417,0.0385,0.0264,0.012,0.0102,-0.0005,-0.0047,-0.0144,-0.0147,-0.0155,-0.0157,-0.013,-0.013,-0.013,-0.013,-0.013,0,0.0389,0.0429,0.0451,0.0483,0.055,0.054,0.0607,0.0601,0.0617,0.0674,0.0566,0.0582,0.04,0.0311,0.0162,0.0008,0.0022,-0.0131,-0.0161,-0.0136,-0.0136,-0.0141,-0.0142,-0.0132,-0.0132,-0.0131,-0.0131,0,0.044,0.0457,0.0521,0.0561,0.058,0.0627,0.0689,0.0737,0.0731,0.0797,0.0793,0.0713,0.0596,0.0408,0.0226,0.0079,-0.0075,-0.0136,-0.0093,-0.0117,-0.0211,-0.0208,-0.0252,-0.0253,-0.0254,-0.0255,-0.0255,0,0.0472,0.0512,0.0581,0.063,0.0651,0.0718,0.0773,0.0795,0.0858,0.089,0.0933,0.0837,0.0791,0.0505,0.0237,-0.0021,-0.0065,-0.0177,-0.0216,-0.0197,-0.0222,-0.0218,-0.0214,-0.021,-0.021,-0.0211,-0.0211,0,0.0539,0.0561,0.0614,0.071,0.0777,0.0863,0.094,0.1009,0.1056,0.1101,0.1152,0.1117,0.0849,0.0596,0.0234,0.0053,-0.0138,-0.0189,-0.0174,-0.0179,-0.0162,-0.0185,-0.0182,-0.0212,-0.0212,-0.0212,-0.0212,-0.0212,0.0587,0.0634,0.0703,0.0795,0.0881,0.0991,0.1069,0.1157,0.1265,0.1338,0.1316,0.1259,0.0975,0.051,0.0199,-0.0143,-0.0132,-0.026,-0.0258,-0.0256,-0.0237,-0.0222,-0.0279,-0.028,-0.028,-0.028,-0.028,0,0.0645,0.0696,0.0783,0.0896,0.0996,0.1029,0.1173,0.1246,0.1371,0.1436,0.1463,0.1193,0.0905,0.0564,0.007,-0.022,-0.0252,-0.0325,-0.0293,-0.0289,-0.0287,-0.0269,-0.032,-0.0321,-0.0322,-0.0323,0,0,0.0681,0.0767,0.0806,0.0972,0.1051,0.1184,0.1267,0.1365,0.1438,0.1489,0.1464,0.1405,0.1011,0.0648,0.0252,-0.0032,-0.0101,-0.01,-0.0036,0.0052,0.0058,-0.0218,-0.0181,0,0,0,0,0]}],[{"header":{"parameterUnit":"m.s-1","parameterCategory":2,"la1":30.2991,"la2":30.254,"lo1":-89.0895,"lo2":-89.0444,"dy":0.0017,"dx":0.0017,"nx":28,"ny":28,"refTime":"2023-11-01T21:00:00:Z","depth":"4","parameterNumber":2,"parameterNumberName":"U-component_of_CURRENTS"},"data":[0,0,0,0,0,0,0,0,0,0,0,0,0,0,0,0,0,0,0,0,0,0,0,0,0,0,0,0,0,0,0,0,0,0,0,0,0,0,0,0,0,0,0,0,0,0,0,0,0,0,0,0,0,0,0,0,0,0,0.167,0.1672,0,0.1756,0.1757,0.1758,0.1825,0.1825,0.1826,0.1827,0.1899,0.19,0.1901,0,0,0,0,0,0,0,0,0,0,0,0,0,0.1554,0.1556,0.167,0.1672,0.1673,0.1756,0.1757,0.1758,0.1824,0.1825,0.1826,0.1827,0.1899,0.19,0.1902,0,0,0,0,0,0,0,0,0,0,0,0,0,0.1617,0.1556,0.167,0.1717,0.1722,0.1756,0.1757,0.1759,0.1824,0.1825,0.1827,0.1828,0.1898,0.19,0.1902,0.1889,0,0,0.1907,0.1908,0,0,0,0,0,0,0,0,0.1614,0.1621,0.1709,0.1714,0.172,0.1783,0.1743,0.1802,0.1824,0.1784,0.1827,0.1828,0.1859,0.1864,0.1875,0.1892,0.1895,0.1907,0.1908,0.1909,0.191,0,0,0,0,0,0,0,0.1609,0.1618,0.1703,0.171,0.1717,0.1731,0.1741,0.1754,0.1812,0.1787,0.1793,0.1805,0.1862,0.1874,0.1878,0.1896,0.1907,0.1909,0.191,0.1911,0.2008,0.2009,0,0,0,0,0,0,0.1601,0.1614,0.17,0.1705,0.1671,0.1732,0.1744,0.176,0.1812,0.1822,0.1804,0.1808,0.187,0.1875,0.188,0.1964,0.1909,0.1911,0.1912,0.2006,0.2008,0.201,0,0,0,0,0,0,0.1599,0.1608,0.1697,0.1663,0.1675,0.1733,0.1751,0.1761,0.1813,0.1825,0.1835,0.185,0.1871,0.1878,0.1928,0.1963,0.1912,0.1913,0.2005,0.2007,0.2009,0.2069,0,0,0,0,0,0,0.1595,0.1607,0.1632,0.1662,0.1677,0.174,0.175,0.1762,0.1817,0.1824,0.1867,0.1873,0.1873,0.1926,0.193,0.1965,0.1915,0.2003,0.2006,0.2008,0.2065,0.2073,0.208,0,0,0,0,0,0.1591,0.1613,0.1633,0.1644,0.1704,0.1741,0.1751,0.1794,0.1818,0.1845,0.1879,0.1874,0.1947,0.1929,0.1933,0.1969,0.2001,0.2005,0.2008,0.2062,0.2071,0.208,0,0,0,0,0,0,0.1581,0.1623,0.1645,0.1683,0.1722,0.1754,0.1789,0.1815,0.1863,0.1882,0.1893,0.1901,0.1957,0.1955,0.1935,0.2006,0.1973,0.1978,0.2012,0.2022,0.2029,0.2019,0.1916,0,0,0,0,0,0.1588,0.1619,0.1658,0.1694,0.1717,0.176,0.1788,0.1818,0.1856,0.1881,0.1909,0.194,0.1967,0.199,0.2009,0.2048,0.2052,0.2074,0.2082,0.2088,0.2084,0.2131,0.2142,0.2021,0.2021,0.2021,0,0,0.1594,0.1624,0.1643,0.1695,0.1732,0.1765,0.1781,0.1835,0.187,0.1878,0.1945,0.1969,0.1984,0.203,0.2055,0.2039,0.2127,0.2092,0.2097,0.2089,0.2136,0.2148,0.2158,0.2023,0.2023,0.2023,0,0,0.1609,0.1652,0.1679,0.1713,0.1773,0.1796,0.182,0.1872,0.191,0.1969,0.1983,0.203,0.2076,0.209,0.2103,0.2161,0.2164,0.2176,0.2209,0.2256,0.2266,0.2275,0.2303,0.2314,0.2181,0.2181,0.2181,0,0.1618,0.1655,0.1694,0.1728,0.1761,0.1813,0.1847,0.1887,0.1952,0.1985,0.2001,0.2086,0.2101,0.215,0.2172,0.2178,0.2202,0.2174,0.2265,0.2274,0.2282,0.2309,0.2321,0.2184,0.2184,0.2184,0.2183,0,0.1639,0.1684,0.1706,0.1763,0.1802,0.1845,0.1896,0.1949,0.2003,0.2042,0.2122,0.2149,0.2202,0.2215,0.2213,0.2279,0.2277,0.2269,0.2242,0.2298,0.2323,0.2334,0.2189,0.2188,0.2187,0.2186,0,0,0.1617,0.1703,0.1715,0.1749,0.1827,0.1857,0.1924,0.1991,0.2046,0.2115,0.2184,0.2235,0.227,0.2285,0.2297,0.233,0.241,0.2331,0.2332,0.2356,0.2516,0.2373,0.2371,0.2431,0.2433,0.2435,0.2512,0,0.1627,0.1685,0.173,0.1794,0.1828,0.1896,0.1953,0.2025,0.2094,0.2173,0.2224,0.2296,0.2292,0.2334,0.2371,0.2402,0.2441,0.2389,0.2458,0.246,0.2324,0.2379,0.2441,0.252,0.2522,0.2524,0.2525,0,0.1626,0.1668,0.1729,0.1814,0.1838,0.189,0.1992,0.2051,0.2162,0.2224,0.2306,0.2355,0.2427,0.2414,0.2504,0.248,0.2506,0.2518,0.2522,0.237,0.2336,0.245,0.2544,0.2543,0.2541,0.254,0.2539,0,0.1576,0.1664,0.1714,0.1744,0.1848,0.19,0.1965,0.2075,0.2133,0.2266,0.2332,0.2424,0.249,0.2538,0.2584,0.2562,0.267,0.2641,0.2533,0.2524,0.2602,0.2592,0.2702,0.2702,0.2702,0.2702,0.2702,0,0.1549,0.1591,0.1704,0.173,0.1799,0.1887,0.1978,0.2055,0.2176,0.2246,0.2363,0.2427,0.253,0.2603,0.262,0.2613,0.2712,0.2541,0.2536,0.2626,0.2618,0.261,0.2599,0.2705,0.2704,0.2704,0.2703,0,0.148,0.1555,0.1616,0.1737,0.1778,0.1831,0.197,0.2029,0.2163,0.2258,0.2307,0.2459,0.2555,0.2633,0.2717,0.2649,0.2658,0.2633,0.2735,0.2735,0.2468,0.2459,0.25,0.2496,0.2492,0.2489,0.2487,0,0.1441,0.1471,0.1603,0.1643,0.1704,0.1801,0.1865,0.2006,0.2064,0.2255,0.2283,0.2437,0.2522,0.2529,0.2623,0.2651,0.2623,0.2602,0.2509,0.2457,0.2449,0.2446,0.2442,0.2481,0.248,0.2479,0.2478,0,0.1369,0.1437,0.1491,0.1573,0.1648,0.1712,0.1814,0.184,0.2,0.214,0.2208,0.2265,0.2374,0.2437,0.2489,0.25,0.2593,0.2562,0.2568,0.2481,0.2434,0.2429,0.2429,0.2465,0.2467,0.2468,0.2469,0,0.1321,0.134,0.1428,0.1485,0.1568,0.1594,0.1663,0.1735,0.1807,0.2005,0.2029,0.2202,0.2348,0.2363,0.241,0.2414,0.2365,0.2265,0.2286,0.2301,0.22,0.2109,0.2039,0,0,0,0,0,0.1266,0.1279,0.1329,0.1382,0.1457,0.1505,0.1613,0.1686,0.1839,0.1832,0.1919,0.2011,0.2088,0.2184,0.2148,0.2325,0.2376,0.2273,0.227,0.2394,0.2409,0.2309,0,0,0,0,0,0,0.1228,0.1277,0.1293,0.1283,0.1302,0.1365,0.143,0.1533,0.1537,0.1703,0.1763,0.1888,0.2002,0.2093,0.2112,0.2139,0.2093,0.238,0.2375,0.2386,0.2399,0.2411,0.2313,0,0,0,0,0]},{"header":{"parameterUnit":"m.s-1","parameterCategory":2,"la1":30.2991,"la2":30.254,"lo1":-89.0895,"lo2":-89.0444,"dy":0.0017,"dx":0.0017,"nx":28,"ny":28,"refTime":"2023-11-01T21:00:00:Z","depth":"4","parameterNumber":3,"parameterNumberName":"V-component_of_CURRENTS"},"data":[0,0,0,0,0,0,0,0,0,0,0,0,0,0,0,0,0,0,0,0,0,0,0,0,0,0,0,0,0,0,0,0,0,0,0,0,0,0,0,0,0,0,0,0,0,0,0,0,0,0,0,0,0,0,0,0,0,0,0.0174,0.0174,0,0.0128,0.0128,0.0127,0.0105,0.0105,0.0105,0.0105,0.006,0.0059,0.0058,0,0,0,0,0,0,0,0,0,0,0,0,0,0.0193,0.0193,0.0174,0.0174,0.0173,0.0129,0.0128,0.0127,0.0105,0.0105,0.0105,0.0105,0.0061,0.0059,0.0058,0,0,0,0,0,0,0,0,0,0,0,0,0,0.0169,0.0193,0.0174,0.0158,0.0156,0.0129,0.0128,0.0127,0.0105,0.0105,0.0105,0.0105,0.0061,0.0059,0.0058,0.0042,0,0,0.0052,0.0051,0,0,0,0,0,0,0,0,0.017,0.0168,0.0161,0.0159,0.0157,0.0123,0.0118,0.0099,0.0105,0.0123,0.0105,0.0105,0.0082,0.0078,0.0068,0.004,0.0038,0.0051,0.005,0.0049,0.0049,0,0,0,0,0,0,0,0.0172,0.017,0.0155,0.016,0.0158,0.0135,0.0133,0.0114,0.0102,0.0122,0.012,0.0117,0.0081,0.007,0.0067,0.0038,0.0051,0.005,0.0049,0.0048,0.0015,0.0015,0,0,0,0,0,0,0.0182,0.0172,0.0157,0.0154,0.0165,0.0135,0.0132,0.0133,0.0102,0.0097,0.0117,0.0116,0.0073,0.0069,0.0065,0.0074,0.0049,0.0048,0.0046,0.0015,0.0015,0.0015,0,0,0,0,0,0,0.0183,0.0181,0.0158,0.0162,0.0158,0.0135,0.0136,0.0132,0.0125,0.0098,0.0093,0.0114,0.0073,0.0068,0.0057,0.0071,0.0047,0.0045,0.0014,0.0015,0.0015,0.0073,0,0,0,0,0,0,0.0184,0.0182,0.0187,0.0163,0.0158,0.0149,0.0136,0.0131,0.0123,0.0121,0.0095,0.009,0.0073,0.006,0.0055,0.0068,0.0043,0.0014,0.0015,0.0015,0.0071,0.0075,0.0079,0,0,0,0,0,0.0185,0.0192,0.0187,0.0185,0.0165,0.0149,0.0145,0.0128,0.0123,0.0122,0.0106,0.0091,0.006,0.0059,0.0053,0.0065,0.0014,0.0014,0.0015,0.0069,0.0075,0.0079,0,0,0,0,0,0,0.02,0.019,0.0184,0.0187,0.0173,0.0146,0.0144,0.0132,0.0117,0.0118,0.0093,0.0088,0.0084,0.0064,0.0063,0.0057,0.0035,0.0034,0.0078,0.0083,0.0087,0.0105,0.0042,0,0,0,0,0,0.0207,0.0211,0.0193,0.0196,0.0191,0.0168,0.016,0.0149,0.0133,0.0126,0.0107,0.009,0.008,0.0074,0.0057,0.0052,0.0025,0.0056,0.006,0.0064,0.0074,0.0045,0.0047,0.0017,0.0017,0.0017,0,0,0.0213,0.0208,0.021,0.0199,0.0188,0.0191,0.0164,0.0156,0.0163,0.0124,0.0126,0.0103,0.0081,0.0079,0.0076,0.0066,0.0056,0.0065,0.0069,0.0077,0.0046,0.0049,0.0051,0.0018,0.0018,0.0018,0,0,0.023,0.0225,0.0235,0.0228,0.0217,0.0206,0.0207,0.0184,0.0179,0.0173,0.0152,0.014,0.0117,0.0108,0.0101,0.0117,0.0079,0.0109,0.0148,0.0119,0.0121,0.0123,0.0084,0.0082,0.0113,0.0113,0.0113,0,0.0238,0.0252,0.0234,0.0243,0.0248,0.0219,0.0234,0.0223,0.02,0.0202,0.0184,0.0157,0.0135,0.0141,0.0148,0.0129,0.01,0.0132,0.0125,0.0127,0.0127,0.0087,0.0084,0.0116,0.0115,0.0115,0.0115,0,0.0263,0.0276,0.0282,0.0291,0.0291,0.0297,0.0286,0.0283,0.0273,0.026,0.0256,0.022,0.0207,0.0196,0.0178,0.0178,0.0151,0.0134,0.0115,0.0134,0.009,0.0086,0.012,0.0119,0.0118,0.0117,0,0,0.0281,0.0298,0.0301,0.0322,0.032,0.0326,0.034,0.0346,0.0364,0.0331,0.0345,0.0318,0.029,0.028,0.0249,0.0224,0.02,0.0187,0.0184,0.0154,0.0126,0.0101,0.0093,0.018,0.018,0.0179,0.009,0,0.031,0.0348,0.0345,0.0387,0.0409,0.0397,0.0418,0.0419,0.041,0.0413,0.0374,0.0371,0.0325,0.032,0.0288,0.0225,0.0193,0.0225,0.0108,0.0104,0.0084,0.0089,0.0179,0.0087,0.0086,0.0085,0.0085,0,0.0336,0.0364,0.0412,0.0452,0.0461,0.0481,0.0516,0.0531,0.0524,0.0515,0.0494,0.0456,0.042,0.0375,0.0274,0.0295,0.022,0.0163,0.0158,0.0114,0.0072,0.0064,0.0076,0.0077,0.0078,0.0078,0.0079,0,0.0369,0.0411,0.0459,0.0471,0.0508,0.0533,0.0554,0.0564,0.0592,0.058,0.0584,0.0526,0.05,0.0403,0.0279,0.0276,0.0157,0.0136,0.0039,0.0036,0.006,0.0059,0.0065,0.0065,0.0066,0.0066,0.0066,0,0.0402,0.044,0.0482,0.0509,0.0574,0.0583,0.0646,0.0652,0.0673,0.0706,0.0642,0.0637,0.0507,0.0418,0.0299,0.0155,0.0167,0.0049,0.0015,0.0084,0.0087,0.0056,0.0056,0.0062,0.0063,0.0064,0.0064,0,0.0427,0.0453,0.0514,0.0568,0.0593,0.0641,0.071,0.0751,0.0759,0.0795,0.0793,0.0722,0.0601,0.0455,0.0292,0.0186,0.0048,-0.0008,0.0073,0.0045,-0.0061,-0.0057,-0.0121,-0.0123,-0.0124,-0.0125,-0.0126,0,0.0443,0.0479,0.0559,0.0603,0.0631,0.0705,0.0756,0.0793,0.0834,0.0842,0.0856,0.076,0.0686,0.0439,0.028,0.0046,0.0011,-0.0067,-0.006,-0.0052,-0.0079,-0.0072,-0.0067,-0.0128,-0.0128,-0.0129,-0.0129,0,0.0474,0.0505,0.0553,0.0642,0.0708,0.0786,0.0855,0.0889,0.0928,0.0938,0.09,0.0772,0.0633,0.0439,0.0255,0.0088,-0.0018,-0.0082,-0.008,-0.0074,-0.0062,-0.0085,-0.0078,-0.0134,-0.0133,-0.0133,-0.0132,0,0.0495,0.0531,0.0594,0.0671,0.0758,0.0832,0.0872,0.0911,0.0952,0.0953,0.0939,0.0788,0.0712,0.046,0.0292,0.0123,0.0077,0.0018,0.0013,0.0016,0.0079,0.0116,0.0074,0,0,0,0,0,0.0509,0.0545,0.0616,0.0698,0.0785,0.0835,0.0922,0.0954,0.0988,0.0968,0.0957,0.0824,0.0576,0.0476,0.0302,0.0253,0.0039,0.0041,-0.0034,-0.0159,-0.0154,-0.0106,0,0,0,0,0,0,0.0517,0.0579,0.0608,0.0705,0.0762,0.0859,0.0915,0.0942,0.0932,0.094,0.0816,0.0766,0.053,0.0672,0.0293,0.0243,0.0168,-0.0066,-0.007,-0.0162,-0.0157,-0.0153,-0.0102,0,0,0,0,0]}]]